Rexburg, ID

11:43 PM MDT on September 29, 2016 (GMT -0600)
Rexburg-Madison County

Weather History for KRXE - March, 2013

Change the Weather History Date:

Saturday, March 16, 2013

  Actual Average Record
Temperature  
Mean Temperature 40 °F 34 °F  
Max Temperature 50 °F 45 °F 63 °F (2015)
Min Temperature 30 °F 24 °F 9 °F (2002)
Degree Days  
Heating Degree Days 25 31  
Month to date heating degree days 527 545  
Since 1 July heating degree days 6194 6518  
Cooling Degree Days 0 0  
Month to date cooling degree days 0 0  
Year to date cooling degree days 0 0  
Moisture  
Dew Point 28 °F    
Average Humidity 64    
Maximum Humidity 92    
Minimum Humidity 36    
Precipitation  
Precipitation T in 0.03 in 0.32 in (2012)
Month to date precipitation 0.17 0.46  
Year to date precipitation 1.75 2.03  
Sea Level Pressure  
Sea Level Pressure 29.92 in    
Wind  
Wind Speed 10 mph (SSW)    
Max Wind Speed 29 mph    
Max Gust Speed 36 mph    
Visibility 10 miles    
Events Rain    
T = Trace of Precipitation, MM = Missing Value Source: NWS Daily Summary

Daily Weather History Graph

Daily Weather History Graph

Search for Another Location

Airport or City:

Trip Planner

Search our weather history database for the weather conditions in past years. The results will help you decide how hot, cold, wet, or windy it might be!

Date:

Astronomy

Mar. 16, 2013 Rise Set
Actual Time 7:37 AM MDT 7:35 PM MDT
Civil Twilight 7:08 AM MDT 8:03 PM MDT
Nautical Twilight 6:34 AM MDT 8:37 PM MDT
Astronomical Twilight 6:00 AM MDT 9:11 PM MDT
Moon 9:59 AM MDT (3/16) 12:01 AM MDT (3/16)
Length of Visible Light 12h 55m
Length of Day
11h 58m
Waxing Crescent, 23% of the Moon is Illuminated
Mar 16
Waxing Crescent
Mar 19
First Quarter
Mar 27
Full
Apr 2
Last Quarter
Apr 10
New

Hourly Weather History & Observations

Time (MDT) Temp. Windchill Dew Point Humidity Pressure Visibility Wind Dir Wind Speed Gust Speed Precip Events Conditions
12:53 AM 41.0 °F 34.7 °F 28.9 °F 62% 29.96 in 10.0 mi South 10.4 mph - N/A   Clear
1:53 AM 37.9 °F 31.5 °F 30.0 °F 73% 29.97 in 10.0 mi SSW 9.2 mph - N/A   Scattered Clouds
2:53 AM 37.0 °F 33.3 °F 30.0 °F 76% 29.97 in 10.0 mi SW 4.6 mph - N/A   Clear
3:53 AM 35.1 °F 29.3 °F 28.9 °F 78% 29.96 in 10.0 mi SSW 6.9 mph - N/A   Clear
4:53 AM 33.1 °F 27.7 °F 28.0 °F 82% 29.97 in 10.0 mi SW 5.8 mph - N/A   Clear
5:53 AM 30.9 °F 27.5 °F 28.0 °F 89% 29.99 in 10.0 mi SW 3.5 mph - N/A   Scattered Clouds
6:53 AM 32.0 °F 25.6 °F 27.0 °F 82% 30.01 in 10.0 mi South 6.9 mph - N/A   Mostly Cloudy
7:53 AM 32.0 °F 25.6 °F 27.0 °F 82% 30.02 in 10.0 mi SSW 6.9 mph - N/A   Overcast
8:53 AM 33.1 °F 26.1 °F 28.0 °F 82% 30.01 in 10.0 mi SSW 8.1 mph - N/A   Mostly Cloudy
9:53 AM 36.0 °F 28.0 °F 28.9 °F 76% 30.01 in 10.0 mi SSW 11.5 mph - N/A   Clear
10:53 AM 39.0 °F 32.8 °F 30.9 °F 73% 30.01 in 10.0 mi WSW 9.2 mph - N/A   Clear
11:53 AM 42.1 °F 36.1 °F 32.0 °F 67% 30.00 in 10.0 mi SW 10.4 mph - N/A   Clear
12:53 PM 45.0 °F 40.1 °F 32.0 °F 60% 30.00 in 10.0 mi SW 9.2 mph - N/A   Clear
1:53 PM 46.9 °F - 28.0 °F 48% 29.97 in 10.0 mi WSW 5.8 mph - N/A   Clear
2:53 PM 48.9 °F - 28.0 °F 44% 29.94 in 10.0 mi SW 11.5 mph - N/A   Clear
3:53 PM 48.9 °F - 26.1 °F 41% 29.90 in 10.0 mi SW 11.5 mph - N/A   Clear
4:53 PM 50.0 °F - 25.0 °F 38% 29.88 in 10.0 mi SSW 12.7 mph - N/A   Clear
5:53 PM 48.9 °F - 23.0 °F 36% 29.86 in 10.0 mi SSW 12.7 mph 19.6 mph N/A   Clear
6:53 PM 46.0 °F 41.9 °F 27.0 °F 47% 29.83 in 10.0 mi South 8.1 mph - N/A   Clear
7:53 PM 44.1 °F 37.7 °F 28.0 °F 53% 29.83 in 10.0 mi SSW 12.7 mph - N/A   Clear
8:53 PM 44.1 °F 38.1 °F 27.0 °F 51% 29.80 in 10.0 mi South 11.5 mph - N/A   Clear
9:53 PM 43.0 °F 36.0 °F 27.0 °F 53% 29.75 in 10.0 mi South 13.8 mph - N/A   Mostly Cloudy
10:53 PM 42.1 °F 36.6 °F 27.0 °F 55% 29.75 in 10.0 mi South 9.2 mph - N/A   Overcast
11:53 PM 39.0 °F 28.3 °F 32.0 °F 76% 29.74 in 10.0 mi SSW 24.2 mph 35.7 mph 0.00 in Rain Light Rain